Year,Month,Day,Hour,Minute,Value (Times are PST for insolation in W/m^2)
2014,08,31,00,00,0.00
2014,08,31,00,01,0.00
2014,08,31,00,02,0.00
2014,08,31,00,03,0.00
2014,08,31,00,04,0.00
2014,08,31,00,05,0.00
2014,08,31,00,06,0.00
2014,08,31,00,07,0.00
2014,08,31,00,08,0.00
2014,08,31,00,09,0.00
2014,08,31,00,10,0.00
2014,08,31,00,11,0.00
2014,08,31,00,12,0.00
2014,08,31,00,13,0.00
2014,08,31,00,14,0.00
2014,08,31,00,15,0.00
2014,08,31,00,16,0.00
2014,08,31,00,17,0.00
2014,08,31,00,18,0.00
2014,08,31,00,19,0.00
2014,08,31,00,20,0.00
2014,08,31,00,21,0.00
2014,08,31,00,22,0.00
2014,08,31,00,23,0.00
2014,08,31,00,24,0.00
2014,08,31,00,25,0.00
2014,08,31,00,26,0.00
2014,08,31,00,27,0.00
2014,08,31,00,28,0.00
2014,08,31,00,29,0.00
2014,08,31,00,30,0.00
2014,08,31,00,31,0.00
2014,08,31,00,32,0.00
2014,08,31,00,33,0.00
2014,08,31,00,34,0.00
2014,08,31,00,35,0.00
2014,08,31,00,36,0.00
2014,08,31,00,37,0.00
2014,08,31,00,38,0.00
2014,08,31,00,39,0.00
2014,08,31,00,40,0.00
2014,08,31,00,41,0.00
2014,08,31,00,42,0.00
2014,08,31,00,43,0.00
2014,08,31,00,44,0.00
2014,08,31,00,45,0.00
2014,08,31,00,46,0.00
2014,08,31,00,47,0.00
2014,08,31,00,48,0.00
2014,08,31,00,49,0.00
2014,08,31,00,50,0.00
2014,08,31,00,51,0.00
2014,08,31,00,52,0.00
2014,08,31,00,53,0.00
2014,08,31,00,54,0.00
2014,08,31,00,55,0.00
2014,08,31,00,56,0.00
2014,08,31,00,57,0.00
2014,08,31,00,58,0.00
2014,08,31,00,59,0.00
2014,08,31,01,00,0.00
2014,08,31,01,01,0.00
2014,08,31,01,02,0.00
2014,08,31,01,03,0.00
2014,08,31,01,04,0.00
2014,08,31,01,05,0.00
2014,08,31,01,06,0.00
2014,08,31,01,07,0.00
2014,08,31,01,08,0.00
2014,08,31,01,09,0.00
2014,08,31,01,10,0.00
2014,08,31,01,11,0.00
2014,08,31,01,12,0.00
2014,08,31,01,13,0.00
2014,08,31,01,14,0.00
2014,08,31,01,15,0.00
2014,08,31,01,16,0.00
2014,08,31,01,17,0.00
2014,08,31,01,18,0.00
2014,08,31,01,19,0.00
2014,08,31,01,20,0.00
2014,08,31,01,21,0.00
2014,08,31,01,22,0.00
2014,08,31,01,23,0.00
2014,08,31,01,24,0.00
2014,08,31,01,25,0.00
2014,08,31,01,26,0.00
2014,08,31,01,27,0.00
2014,08,31,01,28,0.00
2014,08,31,01,29,0.00
2014,08,31,01,30,0.00
2014,08,31,01,31,0.00
2014,08,31,01,32,0.00
2014,08,31,01,33,0.00
2014,08,31,01,34,0.00
2014,08,31,01,35,0.00
2014,08,31,01,36,0.00
2014,08,31,01,37,0.00
2014,08,31,01,38,0.00
2014,08,31,01,39,0.00
2014,08,31,01,40,0.00
2014,08,31,01,41,0.00
2014,08,31,01,42,0.00
2014,08,31,01,43,0.00
2014,08,31,01,44,0.00
2014,08,31,01,45,0.00
2014,08,31,01,46,0.00
2014,08,31,01,47,0.00
2014,08,31,01,48,0.00
2014,08,31,01,49,0.00
2014,08,31,01,50,0.00
2014,08,31,01,51,0.00
2014,08,31,01,52,0.00
2014,08,31,01,53,0.00
2014,08,31,01,54,0.00
2014,08,31,01,55,0.00
2014,08,31,01,56,0.00
2014,08,31,01,57,0.00
2014,08,31,01,58,0.00
2014,08,31,01,59,0.00
2014,08,31,02,00,0.00
2014,08,31,02,01,0.00
2014,08,31,02,02,0.00
2014,08,31,02,03,0.00
2014,08,31,02,04,0.00
2014,08,31,02,05,0.00
2014,08,31,02,06,0.00
2014,08,31,02,07,0.00
2014,08,31,02,08,0.00
2014,08,31,02,09,0.00
2014,08,31,02,10,0.00
2014,08,31,02,11,0.00
2014,08,31,02,12,0.00
2014,08,31,02,13,0.00
2014,08,31,02,14,0.00
2014,08,31,02,15,0.00
2014,08,31,02,16,0.00
2014,08,31,02,17,0.00
2014,08,31,02,18,0.00
2014,08,31,02,19,0.00
2014,08,31,02,20,0.00
2014,08,31,02,21,0.00
2014,08,31,02,22,0.00
2014,08,31,02,23,0.00
2014,08,31,02,24,0.00
2014,08,31,02,25,0.00
2014,08,31,02,26,0.00
2014,08,31,02,27,0.00
2014,08,31,02,28,0.00
2014,08,31,02,29,0.00
2014,08,31,02,30,0.00
2014,08,31,02,31,0.00
2014,08,31,02,32,0.00
2014,08,31,02,33,0.00
2014,08,31,02,34,0.00
2014,08,31,02,35,0.00
2014,08,31,02,36,0.00
2014,08,31,02,37,0.00
2014,08,31,02,38,0.00
2014,08,31,02,39,0.00
2014,08,31,02,40,0.00
2014,08,31,02,41,0.00
2014,08,31,02,42,0.00
2014,08,31,02,43,0.00
2014,08,31,02,44,0.00
2014,08,31,02,45,0.00
2014,08,31,02,46,0.00
2014,08,31,02,47,0.00
2014,08,31,02,48,0.00
2014,08,31,02,49,0.00
2014,08,31,02,50,0.00
2014,08,31,02,51,0.00
2014,08,31,02,52,0.00
2014,08,31,02,53,0.00
2014,08,31,02,54,0.00
2014,08,31,02,55,0.00
2014,08,31,02,56,0.00
2014,08,31,02,57,0.00
2014,08,31,02,58,0.00
2014,08,31,02,59,0.00
2014,08,31,03,00,0.00
2014,08,31,03,01,0.00
2014,08,31,03,02,0.00
2014,08,31,03,03,0.00
2014,08,31,03,04,0.00
2014,08,31,03,05,0.00
2014,08,31,03,06,0.00
2014,08,31,03,07,0.00
2014,08,31,03,08,0.00
2014,08,31,03,09,0.00
2014,08,31,03,10,0.00
2014,08,31,03,11,0.00
2014,08,31,03,12,0.00
2014,08,31,03,13,0.00
2014,08,31,03,14,0.00
2014,08,31,03,15,0.00
2014,08,31,03,16,0.00
2014,08,31,03,17,0.00
2014,08,31,03,18,0.00
2014,08,31,03,19,0.00
2014,08,31,03,20,0.00
2014,08,31,03,21,0.00
2014,08,31,03,22,0.00
2014,08,31,03,23,0.00
2014,08,31,03,24,0.00
2014,08,31,03,25,0.00
2014,08,31,03,26,0.00
2014,08,31,03,27,0.00
2014,08,31,03,28,0.00
2014,08,31,03,29,0.00
2014,08,31,03,30,0.00
2014,08,31,03,31,0.00
2014,08,31,03,32,0.00
2014,08,31,03,33,0.00
2014,08,31,03,34,0.00
2014,08,31,03,35,0.00
2014,08,31,03,36,0.00
2014,08,31,03,37,0.00
2014,08,31,03,38,0.00
2014,08,31,03,39,0.00
2014,08,31,03,40,0.00
2014,08,31,03,41,0.00
2014,08,31,03,42,0.00
2014,08,31,03,43,0.00
2014,08,31,03,44,0.00
2014,08,31,03,45,0.00
2014,08,31,03,46,0.00
2014,08,31,03,47,0.00
2014,08,31,03,48,0.00
2014,08,31,03,49,0.00
2014,08,31,03,50,0.00
2014,08,31,03,51,0.00
2014,08,31,03,52,0.00
2014,08,31,03,53,0.00
2014,08,31,03,54,0.00
2014,08,31,03,55,0.00
2014,08,31,03,56,0.00
2014,08,31,03,57,0.00
2014,08,31,03,58,0.00
2014,08,31,03,59,0.00
2014,08,31,04,00,0.00
2014,08,31,04,01,0.00
2014,08,31,04,02,0.00
2014,08,31,04,03,0.00
2014,08,31,04,04,0.00
2014,08,31,04,05,0.00
2014,08,31,04,06,0.00
2014,08,31,04,07,0.00
2014,08,31,04,08,0.00
2014,08,31,04,09,0.00
2014,08,31,04,10,0.00
2014,08,31,04,11,0.00
2014,08,31,04,12,0.00
2014,08,31,04,13,0.00
2014,08,31,04,14,0.00
2014,08,31,04,15,0.00
2014,08,31,04,16,0.00
2014,08,31,04,17,0.00
2014,08,31,04,18,0.00
2014,08,31,04,19,0.00
2014,08,31,04,20,0.00
2014,08,31,04,21,0.00
2014,08,31,04,22,0.00
2014,08,31,04,23,0.00
2014,08,31,04,24,0.00
2014,08,31,04,25,0.00
2014,08,31,04,26,0.00
2014,08,31,04,27,0.00
2014,08,31,04,28,0.00
2014,08,31,04,29,0.00
2014,08,31,04,30,0.00
2014,08,31,04,31,0.00
2014,08,31,04,32,0.00
2014,08,31,04,33,0.00
2014,08,31,04,34,0.00
2014,08,31,04,35,0.00
2014,08,31,04,36,0.00
2014,08,31,04,37,0.00
2014,08,31,04,38,0.00
2014,08,31,04,39,0.00
2014,08,31,04,40,0.00
2014,08,31,04,41,0.00
2014,08,31,04,42,0.00
2014,08,31,04,43,0.00
2014,08,31,04,44,0.00
2014,08,31,04,45,0.00
2014,08,31,04,46,0.00
2014,08,31,04,47,0.00
2014,08,31,04,48,0.00
2014,08,31,04,49,0.00
2014,08,31,04,50,0.00
2014,08,31,04,51,0.00
2014,08,31,04,52,0.00
2014,08,31,04,53,0.00
2014,08,31,04,54,0.00
2014,08,31,04,55,0.00
2014,08,31,04,56,0.00
2014,08,31,04,57,0.00
2014,08,31,04,58,0.00
2014,08,31,04,59,0.00
2014,08,31,05,00,0.00
2014,08,31,05,01,0.00
2014,08,31,05,02,0.00
2014,08,31,05,03,0.00
2014,08,31,05,04,0.00
2014,08,31,05,05,0.00
2014,08,31,05,06,0.00
2014,08,31,05,07,0.00
2014,08,31,05,08,0.00
2014,08,31,05,09,0.00
2014,08,31,05,10,0.00
2014,08,31,05,11,0.00
2014,08,31,05,12,0.00
2014,08,31,05,13,0.00
2014,08,31,05,14,0.00
2014,08,31,05,15,0.00
2014,08,31,05,16,0.00
2014,08,31,05,17,0.00
2014,08,31,05,18,0.00
2014,08,31,05,19,0.00
2014,08,31,05,20,0.00
2014,08,31,05,21,0.00
2014,08,31,05,22,0.00
2014,08,31,05,23,0.00
2014,08,31,05,24,0.00
2014,08,31,05,25,0.00
2014,08,31,05,26,0.00
2014,08,31,05,27,0.00
2014,08,31,05,28,0.00
2014,08,31,05,29,0.00
2014,08,31,05,30,0.00
2014,08,31,05,31,0.00
2014,08,31,05,32,0.00
2014,08,31,05,33,0.00
2014,08,31,05,34,0.00
2014,08,31,05,35,0.00
2014,08,31,05,36,0.00
2014,08,31,05,37,0.00
2014,08,31,05,38,0.00
2014,08,31,05,39,0.00
2014,08,31,05,40,0.00
2014,08,31,05,41,0.00
2014,08,31,05,42,0.00
2014,08,31,05,43,0.00
2014,08,31,05,44,0.00
2014,08,31,05,45,0.00
2014,08,31,05,46,0.00
2014,08,31,05,47,0.00
2014,08,31,05,48,0.00
2014,08,31,05,49,0.00
2014,08,31,05,50,0.00
2014,08,31,05,51,0.00
2014,08,31,05,52,0.00
2014,08,31,05,53,0.00
2014,08,31,05,54,0.00
2014,08,31,05,55,0.00
2014,08,31,05,56,0.00
2014,08,31,05,57,0.00
2014,08,31,05,58,0.00
2014,08,31,05,59,0.00
2014,08,31,06,00,0.00
2014,08,31,06,01,0.00
2014,08,31,06,02,0.00
2014,08,31,06,03,0.00
2014,08,31,06,04,0.00
2014,08,31,06,05,0.00
2014,08,31,06,06,0.00
2014,08,31,06,07,0.00
2014,08,31,06,08,0.00
2014,08,31,06,09,0.00
2014,08,31,06,10,0.00
2014,08,31,06,11,0.00
2014,08,31,06,12,0.00
2014,08,31,06,13,0.00
2014,08,31,06,14,0.00
2014,08,31,06,15,0.00
2014,08,31,06,16,0.00
2014,08,31,06,17,0.00
2014,08,31,06,18,0.00
2014,08,31,06,19,0.00
2014,08,31,06,20,0.00
2014,08,31,06,21,0.00
2014,08,31,06,22,0.00
2014,08,31,06,23,0.00
2014,08,31,06,24,0.00
2014,08,31,06,25,0.00
2014,08,31,06,26,0.00
2014,08,31,06,27,0.00
2014,08,31,06,28,0.00
2014,08,31,06,29,0.00
2014,08,31,06,30,0.00
2014,08,31,06,31,0.00
2014,08,31,06,32,0.00
2014,08,31,06,33,1.20
2014,08,31,06,34,5.00
2014,08,31,06,35,5.00
2014,08,31,06,36,5.90
2014,08,31,06,37,7.00
2014,08,31,06,38,7.00
2014,08,31,06,39,8.20
2014,08,31,06,40,9.00
2014,08,31,06,41,10.50
2014,08,31,06,42,11.00
2014,08,31,06,43,11.00
2014,08,31,06,44,12.00
2014,08,31,06,45,14.10
2014,08,31,06,46,16.00
2014,08,31,06,47,16.00
2014,08,31,06,48,16.50
2014,08,31,06,49,18.00
2014,08,31,06,50,18.00
2014,08,31,06,51,18.40
2014,08,31,06,52,19.00
2014,08,31,06,53,20.10
2014,08,31,06,54,22.20
2014,08,31,06,55,23.00
2014,08,31,06,56,24.50
2014,08,31,06,57,25.00
2014,08,31,06,58,25.90
2014,08,31,06,59,29.80
2014,08,31,07,00,33.00
2014,08,31,07,01,32.90
2014,08,31,07,02,31.60
2014,08,31,07,03,30.00
2014,08,31,07,04,30.60
2014,08,31,07,05,32.00
2014,08,31,07,06,32.00
2014,08,31,07,07,32.50
2014,08,31,07,08,33.00
2014,08,31,07,09,34.20
2014,08,31,07,10,35.00
2014,08,31,07,11,35.00
2014,08,31,07,12,36.60
2014,08,31,07,13,37.00
2014,08,31,07,14,38.90
2014,08,31,07,15,39.00
2014,08,31,07,16,40.00
2014,08,31,07,17,40.40
2014,08,31,07,18,42.00
2014,08,31,07,19,42.60
2014,08,31,07,20,44.00
2014,08,31,07,21,44.90
2014,08,31,07,22,46.00
2014,08,31,07,23,46.60
2014,08,31,07,24,48.20
2014,08,31,07,25,49.00
2014,08,31,07,26,49.00
2014,08,31,07,27,50.60
2014,08,31,07,28,51.00
2014,08,31,07,29,51.00
2014,08,31,07,30,51.00
2014,08,31,07,31,51.00
2014,08,31,07,32,51.00
2014,08,31,07,33,51.00
2014,08,31,07,34,51.60
2014,08,31,07,35,53.00
2014,08,31,07,36,53.40
2014,08,31,07,37,54.00
2014,08,31,07,38,55.10
2014,08,31,07,39,56.00
2014,08,31,07,40,58.70
2014,08,31,07,41,61.50
2014,08,31,07,42,62.80
2014,08,31,07,43,66.50
2014,08,31,07,44,68.90
2014,08,31,07,45,70.20
2014,08,31,07,46,74.40
2014,08,31,07,47,77.40
2014,08,31,07,48,80.00
2014,08,31,07,49,84.00
2014,08,31,07,50,86.80
2014,08,31,07,51,88.00
2014,08,31,07,52,89.00
2014,08,31,07,53,90.00
2014,08,31,07,54,90.60
2014,08,31,07,55,92.40
2014,08,31,07,56,96.00
2014,08,31,07,57,97.80
2014,08,31,07,58,101.50
2014,08,31,07,59,106.80
2014,08,31,08,00,109.10
2014,08,31,08,01,111.70
2014,08,31,08,02,115.40
2014,08,31,08,03,113.00
2014,08,31,08,04,113.30
2014,08,31,08,05,113.60
2014,08,31,08,06,112.10
2014,08,31,08,07,111.00
2014,08,31,08,08,109.90
2014,08,31,08,09,109.00
2014,08,31,08,10,107.60
2014,08,31,08,11,105.50
2014,08,31,08,12,104.20
2014,08,31,08,13,102.20
2014,08,31,08,14,102.00
2014,08,31,08,15,98.00
2014,08,31,08,16,98.00
2014,08,31,08,17,97.40
2014,08,31,08,18,95.00
2014,08,31,08,19,95.60
2014,08,31,08,20,97.40
2014,08,31,08,21,98.00
2014,08,31,08,22,99.00
2014,08,31,08,23,98.90
2014,08,31,08,24,103.60
2014,08,31,08,25,107.00
2014,08,31,08,26,128.30
2014,08,31,08,27,180.00
2014,08,31,08,28,158.30
2014,08,31,08,29,186.40
2014,08,31,08,30,187.30
2014,08,31,08,31,274.00
2014,08,31,08,32,247.30
2014,08,31,08,33,134.20
2014,08,31,08,34,135.00
2014,08,31,08,35,137.30
2014,08,31,08,36,136.30
2014,08,31,08,37,131.00
2014,08,31,08,38,121.70
2014,08,31,08,39,117.70
2014,08,31,08,40,120.70
2014,08,31,08,41,129.40
2014,08,31,08,42,143.30
2014,08,31,08,43,203.90
2014,08,31,08,44,288.20
2014,08,31,08,45,381.90
2014,08,31,08,46,320.40
2014,08,31,08,47,332.50
2014,08,31,08,48,388.00
2014,08,31,08,49,419.80
2014,08,31,08,50,353.40
2014,08,31,08,51,302.90
2014,08,31,08,52,290.00
2014,08,31,08,53,269.70
2014,08,31,08,54,296.60
2014,08,31,08,55,303.00
2014,08,31,08,56,282.50
2014,08,31,08,57,296.80
2014,08,31,08,58,289.20
2014,08,31,08,59,327.00
2014,08,31,09,00,278.00
2014,08,31,09,01,278.60
2014,08,31,09,02,267.60
2014,08,31,09,03,232.00
2014,08,31,09,04,232.00
2014,08,31,09,05,232.00
2014,08,31,09,06,247.70
2014,08,31,09,07,315.50
2014,08,31,09,08,323.60
2014,08,31,09,09,354.60
2014,08,31,09,10,390.00
2014,08,31,09,11,470.80
2014,08,31,09,12,496.00
2014,08,31,09,13,313.80
2014,08,31,09,14,217.40
2014,08,31,09,15,198.60
2014,08,31,09,16,189.30
2014,08,31,09,17,185.20
2014,08,31,09,18,186.00
2014,08,31,09,19,190.10
2014,08,31,09,20,207.00
2014,08,31,09,21,215.30
2014,08,31,09,22,206.50
2014,08,31,09,23,209.10
2014,08,31,09,24,221.70
2014,08,31,09,25,233.80
2014,08,31,09,26,263.70
2014,08,31,09,27,234.00
2014,08,31,09,28,193.00
2014,08,31,09,29,174.70
2014,08,31,09,30,188.50
2014,08,31,09,31,239.00
2014,08,31,09,32,244.00
2014,08,31,09,33,288.10
2014,08,31,09,34,348.00
2014,08,31,09,35,342.00
2014,08,31,09,36,376.70
2014,08,31,09,37,392.00
2014,08,31,09,38,382.70
2014,08,31,09,39,345.10
2014,08,31,09,40,340.80
2014,08,31,09,41,344.50
2014,08,31,09,42,323.10
2014,08,31,09,43,269.60
2014,08,31,09,44,257.20
2014,08,31,09,45,254.20
2014,08,31,09,46,289.50
2014,08,31,09,47,365.60
2014,08,31,09,48,362.00
2014,08,31,09,49,294.00
2014,08,31,09,50,277.90
2014,08,31,09,51,270.00
2014,08,31,09,52,258.50
2014,08,31,09,53,260.10
2014,08,31,09,54,273.30
2014,08,31,09,55,289.20
2014,08,31,09,56,349.60
2014,08,31,09,57,354.90
2014,08,31,09,58,338.20
2014,08,31,09,59,337.90
2014,08,31,10,00,343.00
2014,08,31,10,01,354.00
2014,08,31,10,02,391.00
2014,08,31,10,03,384.40
2014,08,31,10,04,372.20
2014,08,31,10,05,367.40
2014,08,31,10,06,361.40
2014,08,31,10,07,342.50
2014,08,31,10,08,333.90
2014,08,31,10,09,325.70
2014,08,31,10,10,317.50
2014,08,31,10,11,310.40
2014,08,31,10,12,306.60
2014,08,31,10,13,304.30
2014,08,31,10,14,304.00
2014,08,31,10,15,309.30
2014,08,31,10,16,315.00
2014,08,31,10,17,313.90
2014,08,31,10,18,305.70
2014,08,31,10,19,295.00
2014,08,31,10,20,290.40
2014,08,31,10,21,283.90
2014,08,31,10,22,292.00
2014,08,31,10,23,312.10
2014,08,31,10,24,335.00
2014,08,31,10,25,357.30
2014,08,31,10,26,371.60
2014,08,31,10,27,379.70
2014,08,31,10,28,364.60
2014,08,31,10,29,337.20
2014,08,31,10,30,324.00
2014,08,31,10,31,342.50
2014,08,31,10,32,329.10
2014,08,31,10,33,349.20
2014,08,31,10,34,402.20
2014,08,31,10,35,455.80
2014,08,31,10,36,455.10
2014,08,31,10,37,430.50
2014,08,31,10,38,443.00
2014,08,31,10,39,569.30
2014,08,31,10,40,614.30
2014,08,31,10,41,554.80
2014,08,31,10,42,542.60
2014,08,31,10,43,508.50
2014,08,31,10,44,503.00
2014,08,31,10,45,563.00
2014,08,31,10,46,528.40
2014,08,31,10,47,303.30
2014,08,31,10,48,277.80
2014,08,31,10,49,269.50
2014,08,31,10,50,258.10
2014,08,31,10,51,284.10
2014,08,31,10,52,315.50
2014,08,31,10,53,308.00
2014,08,31,10,54,308.00
2014,08,31,10,55,308.00
2014,08,31,10,56,474.10
2014,08,31,10,57,526.00
2014,08,31,10,58,526.00
2014,08,31,10,59,526.00
2014,08,31,11,00,526.00
2014,08,31,11,01,490.70
2014,08,31,11,02,267.80
2014,08,31,11,03,271.00
2014,08,31,11,04,271.00
2014,08,31,11,05,271.00
2014,08,31,11,06,469.00
2014,08,31,11,07,733.00
2014,08,31,11,08,733.00
2014,08,31,11,09,733.00
2014,08,31,11,10,726.90
2014,08,31,11,11,732.40
2014,08,31,11,12,760.10
2014,08,31,11,13,766.00
2014,08,31,11,14,743.10
2014,08,31,11,15,727.10
2014,08,31,11,16,425.20
2014,08,31,11,17,401.00
2014,08,31,11,18,401.00
2014,08,31,11,19,470.40
2014,08,31,11,20,589.30
2014,08,31,11,21,541.00
2014,08,31,11,22,362.00
2014,08,31,11,23,177.90
2014,08,31,11,24,164.10
2014,08,31,11,25,148.50
2014,08,31,11,26,138.70
2014,08,31,11,27,135.40
2014,08,31,11,28,136.70
2014,08,31,11,29,143.70
2014,08,31,11,30,163.30
2014,08,31,11,31,196.00
2014,08,31,11,32,242.00
2014,08,31,11,33,276.00
2014,08,31,11,34,276.00
2014,08,31,11,35,408.60
2014,08,31,11,36,624.00
2014,08,31,11,37,624.00
2014,08,31,11,38,740.60
2014,08,31,11,39,831.10
2014,08,31,11,40,826.90
2014,08,31,11,41,753.10
2014,08,31,11,42,731.00
2014,08,31,11,43,731.00
2014,08,31,11,44,731.00
2014,08,31,11,45,670.00
2014,08,31,11,46,692.80
2014,08,31,11,47,840.00
2014,08,31,11,48,847.50
2014,08,31,11,49,842.70
2014,08,31,11,50,874.60
2014,08,31,11,51,882.00
2014,08,31,11,52,882.00
2014,08,31,11,53,882.00
2014,08,31,11,54,882.00
2014,08,31,11,55,882.00
2014,08,31,11,56,850.00
2014,08,31,11,57,844.90
2014,08,31,11,58,877.10
2014,08,31,11,59,897.20
2014,08,31,12,00,905.00
2014,08,31,12,01,905.00
2014,08,31,12,02,905.00
2014,08,31,12,03,905.00
2014,08,31,12,04,717.60
2014,08,31,12,05,316.00
2014,08,31,12,06,316.00
2014,08,31,12,07,363.00
2014,08,31,12,08,410.00
2014,08,31,12,09,334.50
2014,08,31,12,10,290.70
2014,08,31,12,11,292.00
2014,08,31,12,12,290.40
2014,08,31,12,13,287.40
2014,08,31,12,14,281.30
2014,08,31,12,15,281.10
2014,08,31,12,16,283.30
2014,08,31,12,17,284.60
2014,08,31,12,18,282.50
2014,08,31,12,19,292.80
2014,08,31,12,20,310.80
2014,08,31,12,21,289.10
2014,08,31,12,22,275.00
2014,08,31,12,23,276.90
2014,08,31,12,24,284.00
2014,08,31,12,25,292.50
2014,08,31,12,26,304.90
2014,08,31,12,27,316.10
2014,08,31,12,28,356.00
2014,08,31,12,29,362.00
2014,08,31,12,30,361.90
2014,08,31,12,31,363.10
2014,08,31,12,32,381.30
2014,08,31,12,33,368.30
2014,08,31,12,34,348.40
2014,08,31,12,35,340.00
2014,08,31,12,36,332.00
2014,08,31,12,37,338.50
2014,08,31,12,38,345.00
2014,08,31,12,39,400.10
2014,08,31,12,40,434.00
2014,08,31,12,41,349.40
2014,08,31,12,42,322.20
2014,08,31,12,43,316.00
2014,08,31,12,44,315.00
2014,08,31,12,45,320.20
2014,08,31,12,46,324.30
2014,08,31,12,47,316.60
2014,08,31,12,48,298.40
2014,08,31,12,49,285.70
2014,08,31,12,50,284.90
2014,08,31,12,51,289.70
2014,08,31,12,52,295.50
2014,08,31,12,53,305.90
2014,08,31,12,54,317.80
2014,08,31,12,55,332.90
2014,08,31,12,56,345.60
2014,08,31,12,57,353.70
2014,08,31,12,58,370.50
2014,08,31,12,59,374.00
2014,08,31,13,00,370.50
2014,08,31,13,01,360.00
2014,08,31,13,02,358.50
2014,08,31,13,03,352.20
2014,08,31,13,04,352.00
2014,08,31,13,05,343.90
2014,08,31,13,06,320.30
2014,08,31,13,07,292.50
2014,08,31,13,08,276.10
2014,08,31,13,09,269.80
2014,08,31,13,10,256.00
2014,08,31,13,11,248.50
2014,08,31,13,12,240.70
2014,08,31,13,13,246.80
2014,08,31,13,14,285.10
2014,08,31,13,15,297.20
2014,08,31,13,16,302.30
2014,08,31,13,17,304.40
2014,08,31,13,18,306.00
2014,08,31,13,19,306.00
2014,08,31,13,20,306.80
2014,08,31,13,21,314.40
2014,08,31,13,22,334.00
2014,08,31,13,23,365.60
2014,08,31,13,24,381.00
2014,08,31,13,25,381.00
2014,08,31,13,26,400.00
2014,08,31,13,27,390.50
2014,08,31,13,28,353.50
2014,08,31,13,29,326.20
2014,08,31,13,30,316.00
2014,08,31,13,31,327.00
2014,08,31,13,32,381.60
2014,08,31,13,33,314.10
2014,08,31,13,34,303.90
2014,08,31,13,35,291.20
2014,08,31,13,36,282.40
2014,08,31,13,37,276.50
2014,08,31,13,38,271.10
2014,08,31,13,39,265.90
2014,08,31,13,40,262.60
2014,08,31,13,41,260.50
2014,08,31,13,42,260.00
2014,08,31,13,43,258.30
2014,08,31,13,44,257.00
2014,08,31,13,45,257.00
2014,08,31,13,46,258.00
2014,08,31,13,47,260.70
2014,08,31,13,48,270.80
2014,08,31,13,49,268.60
2014,08,31,13,50,277.00
2014,08,31,13,51,279.00
2014,08,31,13,52,269.00
2014,08,31,13,53,264.10
2014,08,31,13,54,255.20
2014,08,31,13,55,245.50
2014,08,31,13,56,233.10
2014,08,31,13,57,229.20
2014,08,31,13,58,303.30
2014,08,31,13,59,239.80
2014,08,31,14,00,234.80
2014,08,31,14,01,253.30
2014,08,31,14,02,275.70
2014,08,31,14,03,303.00
2014,08,31,14,04,365.40
2014,08,31,14,05,362.00
2014,08,31,14,06,379.60
2014,08,31,14,07,384.50
2014,08,31,14,08,352.90
2014,08,31,14,09,325.70
2014,08,31,14,10,301.40
2014,08,31,14,11,292.70
2014,08,31,14,12,279.00
2014,08,31,14,13,272.50
2014,08,31,14,14,272.00
2014,08,31,14,15,255.60
2014,08,31,14,16,264.80
2014,08,31,14,17,253.50
2014,08,31,14,18,263.00
2014,08,31,14,19,258.40
2014,08,31,14,20,251.60
2014,08,31,14,21,240.90
2014,08,31,14,22,227.50
2014,08,31,14,23,224.40
2014,08,31,14,24,219.00
2014,08,31,14,25,202.40
2014,08,31,14,26,182.50
2014,08,31,14,27,167.50
2014,08,31,14,28,172.80
2014,08,31,14,29,215.90
2014,08,31,14,30,203.10
2014,08,31,14,31,225.00
2014,08,31,14,32,255.10
2014,08,31,14,33,383.00
2014,08,31,14,34,334.00
2014,08,31,14,35,232.80
2014,08,31,14,36,243.70
2014,08,31,14,37,283.00
2014,08,31,14,38,316.00
2014,08,31,14,39,316.00
2014,08,31,14,40,241.00
2014,08,31,14,41,200.70
2014,08,31,14,42,199.00
2014,08,31,14,43,203.30
2014,08,31,14,44,210.70
2014,08,31,14,45,216.10
2014,08,31,14,46,217.50
2014,08,31,14,47,212.70
2014,08,31,14,48,205.10
2014,08,31,14,49,197.10
2014,08,31,14,50,193.80
2014,08,31,14,51,196.70
2014,08,31,14,52,199.00
2014,08,31,14,53,197.90
2014,08,31,14,54,193.90
2014,08,31,14,55,187.90
2014,08,31,14,56,180.70
2014,08,31,14,57,173.30
2014,08,31,14,58,167.70
2014,08,31,14,59,163.20
2014,08,31,15,00,165.30
2014,08,31,15,01,172.10
2014,08,31,15,02,180.70
2014,08,31,15,03,191.30
2014,08,31,15,04,207.10
2014,08,31,15,05,226.80
2014,08,31,15,06,255.10
2014,08,31,15,07,286.50
2014,08,31,15,08,308.10
2014,08,31,15,09,323.70
2014,08,31,15,10,331.00
2014,08,31,15,11,335.00
2014,08,31,15,12,341.70
2014,08,31,15,13,345.60
2014,08,31,15,14,352.70
2014,08,31,15,15,353.40
2014,08,31,15,16,362.00
2014,08,31,15,17,374.40
2014,08,31,15,18,436.80
2014,08,31,15,19,466.10
2014,08,31,15,20,462.00
2014,08,31,15,21,432.90
2014,08,31,15,22,394.00
2014,08,31,15,23,394.00
2014,08,31,15,24,338.30
2014,08,31,15,25,344.90
2014,08,31,15,26,424.20
2014,08,31,15,27,443.00
2014,08,31,15,28,240.90
2014,08,31,15,29,197.60
2014,08,31,15,30,180.40
2014,08,31,15,31,167.50
2014,08,31,15,32,157.00
2014,08,31,15,33,153.00
2014,08,31,15,34,151.70
2014,08,31,15,35,149.80
2014,08,31,15,36,154.90
2014,08,31,15,37,160.00
2014,08,31,15,38,166.30
2014,08,31,15,39,171.60
2014,08,31,15,40,174.70
2014,08,31,15,41,178.30
2014,08,31,15,42,179.00
2014,08,31,15,43,182.50
2014,08,31,15,44,192.50
2014,08,31,15,45,217.80
2014,08,31,15,46,210.50
2014,08,31,15,47,195.00
2014,08,31,15,48,195.00
2014,08,31,15,49,209.60
2014,08,31,15,50,241.00
2014,08,31,15,51,241.00
2014,08,31,15,52,475.50
2014,08,31,15,53,710.00
2014,08,31,15,54,408.50
2014,08,31,15,55,227.80
2014,08,31,15,56,217.00
2014,08,31,15,57,185.50
2014,08,31,15,58,166.90
2014,08,31,15,59,155.50
2014,08,31,16,00,147.70
2014,08,31,16,01,139.80
2014,08,31,16,02,130.70
2014,08,31,16,03,123.80
2014,08,31,16,04,118.10
2014,08,31,16,05,111.30
2014,08,31,16,06,104.00
2014,08,31,16,07,97.50
2014,08,31,16,08,91.00
2014,08,31,16,09,84.90
2014,08,31,16,10,78.90
2014,08,31,16,11,74.60
2014,08,31,16,12,70.80
2014,08,31,16,13,69.10
2014,08,31,16,14,67.10
2014,08,31,16,15,67.00
2014,08,31,16,16,67.00
2014,08,31,16,17,67.00
2014,08,31,16,18,67.00
2014,08,31,16,19,67.00
2014,08,31,16,20,67.00
2014,08,31,16,21,67.00
2014,08,31,16,22,67.00
2014,08,31,16,23,69.90
2014,08,31,16,24,75.10
2014,08,31,16,25,81.10
2014,08,31,16,26,88.30
2014,08,31,16,27,96.50
2014,08,31,16,28,105.80
2014,08,31,16,29,117.50
2014,08,31,16,30,127.40
2014,08,31,16,31,136.00
2014,08,31,16,32,143.10
2014,08,31,16,33,148.70
2014,08,31,16,34,152.60
2014,08,31,16,35,160.20
2014,08,31,16,36,172.10
2014,08,31,16,37,190.50
2014,08,31,16,38,217.40
2014,08,31,16,39,272.30
2014,08,31,16,40,299.00
2014,08,31,16,41,299.00
2014,08,31,16,42,248.80
2014,08,31,16,43,237.00
2014,08,31,16,44,237.00
2014,08,31,16,45,237.00
2014,08,31,16,46,241.80
2014,08,31,16,47,285.90
2014,08,31,16,48,345.00
2014,08,31,16,49,345.00
2014,08,31,16,50,304.60
2014,08,31,16,51,221.90
2014,08,31,16,52,187.50
2014,08,31,16,53,165.70
2014,08,31,16,54,151.80
2014,08,31,16,55,140.50
2014,08,31,16,56,129.40
2014,08,31,16,57,118.10
2014,08,31,16,58,106.50
2014,08,31,16,59,102.10
2014,08,31,17,00,100.20
2014,08,31,17,01,105.00
2014,08,31,17,02,112.30
2014,08,31,17,03,118.70
2014,08,31,17,04,120.70
2014,08,31,17,05,120.40
2014,08,31,17,06,121.00
2014,08,31,17,07,121.00
2014,08,31,17,08,121.00
2014,08,31,17,09,121.00
2014,08,31,17,10,123.70
2014,08,31,17,11,125.00
2014,08,31,17,12,123.40
2014,08,31,17,13,121.30